EW6230 Weather Reports


time (UTC)temp
C
wind
direction
speed
KPH
gust
KPH
rain 1hr
cm
rain 24hr
cm
rain mn
cm
humidity
%
barometer
mb
20260503230042 26 79 0.0 0.0 0.00 0.00 0.00 33 1008.0
20260503224537 26 89 0.0 0.0 0.00 0.00 0.00 33 1008.3
20260503223035 25 151 0.0 0.0 0.00 0.00 0.00 35 1008.5
20260503221533 25 92 0.0 0.0 0.00 0.00 0.00 35 1008.8
20260503220030 24 126 0.0 0.0 0.00 0.00 0.00 36 1009.1
20260503214537 24 70 0.0 0.0 0.00 0.00 0.00 37 1009.3
20260503213027 24 92 0.0 0.0 0.00 0.00 0.00 36 1009.3
20260503211525 25 84 0.0 0.0 0.00 0.00 0.00 36 1009.4
20260503210024 26 355 0.0 0.0 0.00 0.00 0.00 35 1009.4
20260503204522 26 324 0.0 0.0 0.00 0.00 0.00 32 1009.5
20260503203032 26 323 0.0 0.0 0.00 0.00 0.00 32 1009.4
20260503201519 26 71 0.0 0.0 0.00 0.00 0.00 35 1009.6
20260503200016 26 91 0.0 0.0 0.00 0.00 0.00 35 1009.8
20260503194513 25 305 0.0 0.0 0.00 0.00 0.00 36 1010.0
20260503193021 24 305 0.0 0.0 0.00 0.00 0.00 36 1010.2
20260503191520 25 305 0.0 0.0 0.00 0.00 0.00 34 1010.4
20260503190018 25 49 0.0 0.0 0.00 0.00 0.00 36 1010.5
20260503184506 25 75 0.0 0.0 0.00 0.00 0.00 36 1010.5
20260503183003 25 76 0.0 0.0 0.00 0.00 0.00 37 1010.7
20260503181559 24 76 0.0 0.0 0.00 0.00 0.00 40 1010.9
20260503174555 23 75 0.0 0.0 0.00 0.00 0.00 41 1011.2
20260503173055 23 89 0.0 0.0 0.00 0.00 0.00 39 1011.3
20260503171551 23 323 0.0 0.0 0.00 0.00 0.00 42 1011.5
20260503170104 22 325 0.0 0.0 0.00 0.00 0.00 41 1011.6
20260503081539 14 56 0.0 0.0 0.00 0.00 0.00 59 1011.3
20260503071526 14 56 0.0 0.0 0.00 0.00 0.00 57 1011.3
20260503054501 15 60 0.0 0.0 0.00 0.00 0.00 59 1011.2
20260503053057 15 82 0.0 0.0 0.00 0.00 0.00 59 1011.2
20260503051553 15 72 0.0 0.0 0.00 0.00 0.00 59 1011.3
20260503050048 15 71 0.0 0.0 0.00 0.00 0.00 58 1011.3
20260503044546 16 76 0.0 0.0 0.00 0.00 0.00 58 1011.2
20260503043050 16 76 0.0 0.0 0.00 0.00 0.00 57 1011.1
20260503041535 16 77 0.0 0.0 0.00 0.00 0.00 57 1011.0
20260503040033 17 76 0.0 0.0 0.00 0.00 0.00 55 1010.8
20260503034526 17 77 0.0 0.0 0.00 0.00 0.00 54 1010.7
20260503033021 18 77 0.0 0.0 0.00 0.00 0.00 52 1010.5
20260503031517 19 77 0.0 0.0 0.00 0.00 0.00 48 1010.4
20260503030013 20 77 0.0 0.0 0.00 0.00 0.00 43 1010.4
20260503024508 20 77 0.0 0.0 0.00 0.00 0.00 40 1010.4
20260503023003 21 74 0.0 0.0 0.00 0.00 0.00 38 1010.4
20260503021600 21 75 0.0 0.0 0.00 0.00 0.00 37 1010.5
20260503020055 21 75 0.0 0.0 0.00 0.00 0.00 36 1010.6
20260503014600 21 75 0.0 0.0 0.00 0.00 0.00 35 1010.6
20260503013048 21 75 0.0 0.0 0.00 0.00 0.00 38 1010.8
20260503011542 22 75 0.0 0.0 0.00 0.00 0.00 38 1010.9
20260503010038 22 75 0.0 0.0 0.00 0.00 0.00 38 1011.0
20260503004536 22 74 0.0 0.0 0.00 0.00 0.00 37 1010.9
20260503003042 23 74 0.0 0.0 0.00 0.00 0.00 36 1011.0
20260503001524 24 75 0.0 0.0 0.00 0.00 0.00 36 1011.0
20260503000024 25 63 0.0 0.0 0.00 0.00 0.00 34 1011.1
20260502234514 26 79 0.0 0.0 0.00 0.00 0.00 33 1011.1
20260502233026 25 80 0.0 0.0 0.00 0.00 0.00 35 1011.4
20260502231505 25 87 0.0 0.0 0.00 0.00 0.00 35 1011.6